Погода в Тумнине

Погода в Тумнине : погода сейчас, прогноз погоды и архив. Всё, что Вы хотите узнать о погоде в Тумнине!

Поиск расширенной информации на нашем сайте:

Другие новости

Новости СМИ2

Главная страница сайта

Новости сайта

03.07.2017

Напоминаем, что на нашем специализированном сайте Метеоцентр.Азия вы можете получить высокодетализированные автоматические прогнозы погоды по пунктам России, СНГ и мира в авиационном формате (включающие направление и скорость ветра, видимость, явления погоды, количество и форму облачности, нижнюю и верхнюю границу облачности).


Погода в Тумнине - сегодня

Время (UTC), дата Ветер
(°,м/с) 
Видим.   Явления Облачность Т
(°С)
Тd
(°С)
f(%) Тe
(°С)
Pmin
(гПа)
dP
(гПа)
Po
(мм)
O2
(г/м3)
Тmin Tmax R s Состояние
почвы
03 17.08.17 040 (СВ) 20000 м  в посл. час морось  10/9 1000 м кучево-дожд., средняя 
[Cb cap|Ac trans]
+18.2 +15.5 84 +28  1015.3  -0.8  756  282           
06 17.08.17 030 (СВ) 4000 м  дождь{морось}  10/10 600 м 
[Ns]
+16.3 +15 92 +26  1015  -0.4  756  284           
09 17.08.17 020 (С) 10 км  в посл. час морось{дождь}  10/10 600 м 
[Sc|Ns]
+16 +14.8 93 +25  1014.9  0.1  756  285    +19.3     
12 17.08.17 тихо ()   4000 м  морось{дождь}  10/10 600 м 
[St|Ns]
+14.3 +13.5 95 +20  1015.7  0.7  757  287           
15 17.08.17 тихо ()   10 км  в посл. час морось  10/10 600 м 
[St]
+14.1 +13.4 96 +20  1015  -0.7  756  287           
18 17.08.17 тихо ()   20000 м  {морось}  10/10 1000 м кучево-дожд. 
[Cb cap]
+14 +13.4 96 +20  1014.6  -0.4  756  287           
21 17.08.17 тихо ()   0500 м  туман{морось}  ?/?  
+14 +13.4 96 +20  1014.8  0.2  756  287  +13.8      влажная 
00 18.08.17 060 (СВ) 2000 м  в посл. час туман{морось}  10/10 600 м 
[Sc diur, vesp]
+15.6 +14.3 92 +24  1015.3  0.5  756  285           
03 18.08.17 200 (Ю) 20000 м    8/8 1000 м 
[Sc diur, vesp]
+20.6 +15 70 +29  1013.9  -1.3  755  280           
06 18.08.17 100 (В) 20000 м    6/6 1000 м кучево-дожд. 
[Cb cap]
+20.9 +15.2 70 +30  1013  -0.9  755  279           
09 18.08.17 080 (В) 20000 м    8/8 1000 м кучево-дожд. 
[Cb cap]
+18 +14.5 80 +27  1013.6  0.5  755  282    +21.8       
12 18.08.17 тихо ()   20000 м    10/10 1000 м кучево-дожд. 
[Cb cap]
+15.8 +13.5 86 +22  1015  1.3  756  285           
15 18.08.17 тихо ()   20000 м    10/10 1000 м кучево-дожд. 
[Cb cap]
+14.4 +13.6 95 +21  1014.8  -0.2  756  287           
18 18.08.17 тихо ()   20000 м    10/10 1000 м кучево-дожд. 
[Cb cap]
+14.7 +13.6 93 +21  1014.4  -0.5  756  286           
21 18.08.17 тихо ()   20000 м    10/10 1000 м кучево-дожд. 
[Cb cap]
+14.6 +13.9 96 +21  1014.8  0.5  756  286  +14.2        влажная 
00 19.08.17 190 (Ю) 4000 м  слаб. морось  10/10 600 м 
[St]
+16.7 +14.2 85 +25  1014.7  0.1  756  284           
03 19.08.17 170 (Ю) 20000 м    10/8 1000 м кучево-дожд., средняя 
[Cb cap|Ac trans]
+20.5 +15.3 72 +30  1013.7  -0.9  755  280           
06 19.08.17 230 (ЮЗ) 20000 м    8/6 1000 м кучево-дожд., средняя 
[Cb cap|Ac trans]
+24.2 +15.4 58 +33  1011.7  -1.9  754  276           
09 19.08.17 240 (ЮЗ) 4000 м  ливневой дождь  10/10 1000 м кучево-дожд. 
[Cb cap]
+18.5 +17.1 92 +32  1012.7  0.9  754  281    +24.8  0.9     
12 19.08.17 тихо ()   20000 м  {ливн. осадки}  10/10 1000 м кучево-дожд. 
[Cb cap]
+17.2 +16.4 95 +28  1013.4  0.6  755  283           
15 19.08.17 тихо ()   20000 м  слаб. ливневой дождь  10/10 1000 м кучево-дожд. 
[Cb cap]
+16.8 +16 95 +27  1013.1  -0.3  755  283           
18 19.08.17 тихо ()   20000 м  {ливн. осадки}  10/10 1000 м кучево-дожд. 
[Cb cap]
+16.5 +15.9 96 +27  1012.4  -0.7  754  283           
00 20.08.17 230 (ЮЗ) 20000 м  {туман}  10/10 1000 м кучево-дожд. 
[Cb cap]
+18.1 +16.2 89 +30  1012.1  -0.2  754  281           
03 20.08.17 010 (С) 20000 м    9/4 1000 м кучево-дожд., средняя, верхняя 
[Cb cap|Ac trans|Ci fib]
+23.2 +17.8 72 +37  1010.1  -1.9  753  275           
06 20.08.17 150 (ЮВ) 20000 м    9/6 1000 м кучево-дожд., средняя 
[Cb cap|Ac trans]
+25.2 +19.2 69 +42  1008.3  -1.7  751  273           
Время (UTC), дата Ветер
(°,м/с) 
Видим.   Явления Облачность Т
(°С)
Тd
(°С)
f(%) Тe
(°С)
Pmin
(гПа)
dP
(гПа)
Po
(мм)
O2
(г/м3)
Тmin Tmax R s Состояние
почвы

Для получения пояснительной информации подведите курсор к названию столбца.

ПОГОДА в Тумнине - архив

Всё, что Вы хотите узнать о погоде в Тумнине - удобно и подробно!

Выберите нужную дату (начиная с 1 января 2015* года) и нажмите кнопку "Найти".
Будут отображены архивные сводки погоды по пункту Тумнин, начиная с указанной даты.


Отображать данные в формате CSV (для использования в таблицах Excel)


Внимание! Наш архив погоды предназначен исключительно для личного некоммерческого использования в познавательных целях. Если Вам необходимы официальные справки о состоянии погоды (для производственных, юридических, коммерческих и т.п. целей), обращайтесь в органы Росгидромета.

*Примечание: данная дата относится к архиву по метеостанциям СССР (Россия, СНГ, Балтия).
Архив по метеостанциям Зарубежной Европы и Азии (кроме Китая) хранится 10 дней, по другим регионам земного шара (Китай, Африка, Америка, Австралия, Океания) - 1 день.

Тумнин - район местоположения метеостанции


Название, широта, долгота, высота метеостанции:
Тумнин 49.7°ш. 140.1°д. 58 м над ур. моря [Российская Федерация]

Дополнительная информация

В oтличие oт бoльшинства пoгoдных сайтoв мы публикуем пoдрoбную метеoинфoрмацию в детальнoм прoфессиoнальнoм фoрмате.

Характеристики температуры и влажнoсти вoздуха измеряются на высoте 2 м в тени вдали oт зданий и деревьев.
Скoрoсть ветра измеряется на высoте 10 м (на урoвне рoста челoвека скoрoсть ветра ниже в 1.5-2 раза). Если метеoстанция нахoдится в гoрoде или в лесу, тo скoрoсть ветра занижена на 2-4 м/с пo сравнению с oткрытым местoм. Скoрoсть ветра над акватoриями крупных рек и oзёр, а также на вершинах хoлмoв на 2-5 м/с выше, чем в oбычных услoвиях.
Атмoсфернoе давление в разных тoчках местнoсти мoжет значительнo oтличаться oт давления на метеoстанции, в зависимoсти oт услoвий рельефа (при пoдъёме на 10 м давление пoнижается примернo на 1 мм рт.ст.).